This is the latest recevied weather packets stored in our database for station/object OE3KAR-14. If no packets are shown the sender has not sent any weather packets the latest 10 day(s).
| Time | Temp. | Humidity | Pressure | Rain* | Wind** | Luminosity | Snow |
|---|---|---|---|---|---|---|---|
| 1787928372 | 39.44° C | 21% | 993.6 hPa | - | - | - | - |
| 1787928069 | 40° C | 20% | 993.5 hPa | - | - | - | - |
| 1787927766 | 41.11° C | 20% | 993.5 hPa | - | - | - | - |
| 1787927464 | 41.11° C | 19% | 993.3 hPa | - | - | - | - |
| 1787927161 | 41.11° C | 19% | 993.5 hPa | - | - | - | - |
| 1787926858 | 41.11° C | 19% | 993.4 hPa | - | - | - | - |
| 1787926556 | 41.11° C | 19% | 993.4 hPa | - | - | - | - |
| 1787926253 | 41.11° C | 19% | 993.4 hPa | - | - | - | - |
| 1787925345 | 40.56° C | 20% | 993.7 hPa | - | - | - | - |
| 1787925042 | 40.56° C | 20% | 993.7 hPa | - | - | - | - |
| 1787924437 | 40° C | 21% | 993.6 hPa | - | - | - | - |
| 1787924134 | 40° C | 21% | 993.7 hPa | - | - | - | - |
| 1787923832 | 39.44° C | 21% | 993.6 hPa | - | - | - | - |
| 1787923529 | 39.44° C | 21% | 993.6 hPa | - | - | - | - |
| 1787923226 | 39.44° C | 21% | 993.4 hPa | - | - | - | - |
| 1787922924 | 39.44° C | 21% | 993.5 hPa | - | - | - | - |
| 1787922621 | 39.44° C | 21% | 993.7 hPa | - | - | - | - |
| 1787922318 | 40° C | 21% | 993.6 hPa | - | - | - | - |
| 1787922016 | 39.44° C | 21% | 993.7 hPa | - | - | - | - |
| 1787921713 | 39.44° C | 20% | 993.7 hPa | - | - | - | - |
| 1787921410 | 38.89° C | 20% | 993.8 hPa | - | - | - | - |
| 1787921108 | 38.89° C | 20% | 993.9 hPa | - | - | - | - |
| 1787920805 | 39.44° C | 20% | 994 hPa | - | - | - | - |
| 1787920502 | 40° C | 20% | 994 hPa | - | - | - | - |
| 1787920200 | 39.44° C | 20% | 993.9 hPa | - | - | - | - |
* Rain since midnight (hover to see other rain measurements)
** Current wind speed in m/s (hover to see current wind gust speed)